Location: Jaite
(41.2884°N, 81.5737°W)
Time: 17:02:49
(UTC+00:00)

Cosmos 2227 Rocket - Pass Details

Date: 18 January 2020
Orbit: 840 x 844 km, 71.0° (Epoch: 25 February)

Event Time Altitude Azimuth Distance (km) Brightness Sun altitude
Exits shadow 09:40:24 40° 70° (ENE) 1,223 3.3 -35.0°
Drops below altitude 10° 09:45:17 10° 129° (SE) 2,452 5.1 -34.1°
Sets 09:47:52 0° 137° (SE) 3,384 5.9 -33.6°
